[[{"header":{"parameterUnit":"m.s-1","parameterCategory":1,"la1":30.2991,"la2":30.254,"lo1":-89.0895,"lo2":-89.0444,"dy":0.0017,"dx":0.0017,"nx":28,"ny":28,"refTime":"2025-05-22T03:00:00:Z","depth":0,"parameterNumber":2,"parameterNumberName":"U-component_of_WINDS"},"data":[0,0,0,0,0,0,0,0,0,0,0,0,0,0,0,0,0,0,0,0,0,0,0,0,0,0,0,0,0,0,0,0,0,0,0,0,0,0,0,0,0,0,0,0,0,0,0,0,0,0,0,0,0,0,0,0,0,0,1.0751,1.0753,0,1.09,1.0901,1.0903,1.0942,1.0941,1.0941,1.094,1.1092,1.1097,1.1101,0,0,0,0,0,0,0,0,0,0,0,0,0,1.0499,1.0504,1.0751,1.0753,1.0755,1.0899,1.0902,1.0904,1.0943,1.0941,1.094,1.0939,1.109,1.1096,1.1102,0,0,0,0,0,0,0,0,0,0,0,0,0,1.0624,1.0505,1.0751,1.0792,1.0797,1.0899,1.0902,1.0904,1.0943,1.0941,1.094,1.0939,1.1088,1.1095,1.1103,1.1175,0,0,1.1125,1.1128,0,0,0,0,0,0,0,0,1.0617,1.0634,1.0784,1.0789,1.0795,1.0901,1.0869,1.0995,1.0943,1.0887,1.094,1.0938,1.1029,1.1042,1.1072,1.1182,1.1188,1.1126,1.113,1.1133,1.1135,0,0,0,0,0,0,0,1.0609,1.0627,1.081,1.0786,1.0793,1.0802,1.0818,1.0893,1.0964,1.0892,1.0895,1.0912,1.1032,1.1065,1.1076,1.1191,1.1126,1.1132,1.1137,1.1139,1.1366,1.1367,0,0,0,0,0,0,1.0593,1.062,1.0805,1.0814,1.0701,1.0808,1.0826,1.0868,1.0963,1.0977,1.0913,1.0914,1.1053,1.1068,1.1082,1.1172,1.1133,1.114,1.1144,1.1364,1.1366,1.1368,0,0,0,0,0,0,1.0587,1.0609,1.0799,1.0718,1.0743,1.0813,1.0861,1.0872,1.0905,1.098,1.0992,1.0934,1.1053,1.1071,1.1151,1.1178,1.1143,1.115,1.1362,1.1365,1.1367,1.1352,0,0,0,0,0,0,1.058,1.0607,1.0635,1.0718,1.0747,1.0866,1.0863,1.0876,1.0918,1.0919,1.1002,1.1015,1.1053,1.114,1.1158,1.1187,1.1156,1.136,1.1363,1.1366,1.1351,1.1354,1.1357,0,0,0,0,0,1.0571,1.0626,1.0637,1.0659,1.0784,1.0868,1.0884,1.0927,1.092,1.0949,1.0996,1.1012,1.1172,1.1148,1.1169,1.12,1.1359,1.1362,1.1366,1.135,1.1353,1.1357,0,0,0,0,0,0,1.0544,1.0637,1.0651,1.0734,1.0793,1.0874,1.0912,1.093,1.0993,1.0992,1.1043,1.1061,1.1137,1.1177,1.1148,1.1274,1.1265,1.1273,1.1246,1.125,1.1253,1.1242,1.1162,0,0,0,0,0,1.0548,1.0608,1.0686,1.0752,1.0781,1.0841,1.0879,1.0907,1.097,1.0995,1.1049,1.1109,1.1173,1.1213,1.1276,1.1357,1.1375,1.1388,1.1391,1.1393,1.14,1.1444,1.1451,1.138,1.138,1.1379,0,0,1.0557,1.0615,1.065,1.0748,1.0797,1.0858,1.0862,1.0926,1.0972,1.1005,1.1083,1.1125,1.1195,1.1275,1.1313,1.131,1.1423,1.1398,1.1399,1.1405,1.1448,1.1455,1.1461,1.1382,1.1382,1.1381,0,0,1.0603,1.0653,1.0714,1.0762,1.0836,1.0875,1.0889,1.0968,1.0997,1.1076,1.1102,1.1156,1.1265,1.1314,1.1353,1.1416,1.1433,1.1435,1.1451,1.1493,1.1499,1.1504,1.1526,1.1533,1.1441,1.1441,1.1441,0,1.0604,1.0697,1.0742,1.0805,1.0847,1.088,1.094,1.0985,1.1075,1.1103,1.1099,1.1235,1.1285,1.1377,1.1392,1.1423,1.144,1.1426,1.1495,1.15,1.1506,1.1527,1.1535,1.1441,1.1441,1.1441,1.1441,0,1.0695,1.0758,1.0798,1.0884,1.0931,1.0992,1.1045,1.1087,1.1111,1.115,1.123,1.1291,1.1366,1.1389,1.1414,1.1484,1.148,1.1484,1.1476,1.1511,1.1532,1.1541,1.1441,1.1441,1.1441,1.1441,0,0,1.0729,1.0838,1.0852,1.0891,1.0974,1.1024,1.1086,1.1159,1.1194,1.1254,1.1307,1.1398,1.1402,1.1446,1.1476,1.1514,1.1559,1.1514,1.1516,1.1519,1.1639,1.1634,1.1643,1.157,1.1572,1.1573,1.1633,0,1.0786,1.0899,1.094,1.1032,1.1091,1.1122,1.1176,1.1233,1.1271,1.1326,1.1369,1.1432,1.1433,1.146,1.1498,1.1545,1.1583,1.1541,1.1619,1.1622,1.16,1.1654,1.165,1.1704,1.1641,1.1643,1.1644,0,1.0867,1.0928,1.1026,1.1101,1.1127,1.1175,1.1244,1.1297,1.1361,1.1386,1.1435,1.1462,1.1527,1.1515,1.1606,1.1576,1.161,1.1638,1.1641,1.165,1.1634,1.1664,1.1722,1.1729,1.1657,1.1656,1.1655,0,1.0881,1.0988,1.106,1.1093,1.1182,1.1214,1.1253,1.1316,1.1357,1.1417,1.1444,1.1512,1.1549,1.16,1.1644,1.1631,1.173,1.1722,1.1753,1.1752,1.1772,1.177,1.1836,1.1795,1.1795,1.1795,1.1794,0,1.094,1.0998,1.1068,1.1112,1.1178,1.1225,1.1289,1.133,1.1385,1.1437,1.1468,1.1516,1.1572,1.1627,1.1662,1.1731,1.1748,1.177,1.1778,1.1767,1.1764,1.179,1.1787,1.1797,1.1796,1.1796,1.1795,0,1.0967,1.1016,1.1097,1.1174,1.1195,1.124,1.1306,1.135,1.1389,1.1455,1.1473,1.1534,1.1601,1.165,1.1736,1.1759,1.1833,1.1842,1.1811,1.1816,1.1843,1.184,1.1927,1.1941,1.1891,1.1891,1.1892,0,1.1001,1.1047,1.1128,1.1166,1.1204,1.1264,1.1305,1.1352,1.1394,1.147,1.1504,1.1573,1.163,1.1735,1.1787,1.1853,1.1863,1.189,1.1874,1.186,1.1863,1.186,1.1864,1.1892,1.1892,1.1892,1.1893,0,1.1056,1.1077,1.1136,1.1203,1.1252,1.1307,1.1363,1.1392,1.1449,1.1494,1.1562,1.1607,1.1694,1.1761,1.1832,1.1871,1.1891,1.1897,1.1908,1.1896,1.1876,1.1887,1.1817,1.1895,1.1895,1.1895,1.1894,1.1894,1.1087,1.1129,1.1192,1.1257,1.1303,1.1354,1.1399,1.1443,1.1501,1.1576,1.16,1.167,1.1732,1.1829,1.1869,1.1924,1.1924,1.1939,1.1943,1.1946,1.1945,1.1867,1.1937,1.1937,1.1937,1.1937,1.1937,0,1.1143,1.1185,1.1244,1.132,1.137,1.1384,1.1446,1.1487,1.1549,1.1605,1.166,1.1738,1.1803,1.186,1.1927,1.1961,1.1971,1.1977,1.1974,1.1983,1.1942,1.1925,1.1967,1.1967,1.1967,1.1967,1.1967,1.1967,1.1178,1.1248,1.1277,1.1371,1.1413,1.1482,1.1516,1.1563,1.1607,1.1693,1.1747,1.1783,1.184,1.1911,1.1971,1.1986,1.2009,1.2012,1.2029,1.199,1.1986,1.1983,1.1968,1.2017,1.2017,1.2066,1.2067,1.2067]},{"header":{"parameterUnit":"m.s-1","parameterCategory":1,"la1":30.2991,"la2":30.254,"lo1":-89.0895,"lo2":-89.0444,"dy":0.0017,"dx":0.0017,"nx":28,"ny":28,"refTime":"2025-05-22T03:00:00:Z","depth":0,"parameterNumber":3,"parameterNumberName":"V-component_of_WINDS"},"data":[0,0,0,0,0,0,0,0,0,0,0,0,0,0,0,0,0,0,0,0,0,0,0,0,0,0,0,0,0,0,0,0,0,0,0,0,0,0,0,0,0,0,0,0,0,0,0,0,0,0,0,0,0,0,0,0,0,0,3.2212,3.2212,0,3.2202,3.2202,3.2202,3.2147,3.2146,3.2145,3.2143,3.2134,3.2135,3.2136,0,0,0,0,0,0,0,0,0,0,0,0,0,3.2184,3.2185,3.2212,3.2212,3.2212,3.2202,3.2202,3.2202,3.2147,3.2146,3.2144,3.2143,3.2133,3.2135,3.2136,0,0,0,0,0,0,0,0,0,0,0,0,0,3.2188,3.2185,3.2212,3.2183,3.2181,3.2202,3.2202,3.2202,3.2148,3.2146,3.2144,3.2142,3.2133,3.2134,3.2136,3.2184,0,0,3.214,3.2141,0,0,0,0,0,0,0,0,3.2187,3.2189,3.2188,3.2185,3.2182,3.2174,3.2188,3.2196,3.2148,3.216,3.2143,3.2141,3.2149,3.2149,3.2151,3.2183,3.2183,3.214,3.2141,3.2142,3.2142,0,0,0,0,0,0,0,3.2187,3.2189,3.2208,3.2188,3.2185,3.2171,3.2169,3.219,3.2166,3.2159,3.2155,3.2155,3.2147,3.215,3.2151,3.2183,3.214,3.2142,3.2143,3.2143,3.2253,3.2255,0,0,0,0,0,0,3.2191,3.2189,3.2208,3.2208,3.218,3.2173,3.2171,3.2179,3.2165,3.2161,3.2156,3.2152,3.2148,3.2149,3.215,3.2205,3.2142,3.2143,3.2144,3.2251,3.2254,3.2256,0,0,0,0,0,0,3.2191,3.2193,3.2209,3.2197,3.2198,3.2176,3.2184,3.2179,3.2182,3.2163,3.2159,3.2164,3.2147,3.2148,3.2176,3.2204,3.2144,3.2145,3.2249,3.2252,3.2255,3.2315,0,0,0,0,0,0,3.219,3.2193,3.2212,3.2198,3.2199,3.2235,3.2186,3.2181,3.2185,3.2179,3.2169,3.2165,3.2145,3.2174,3.2177,3.2205,3.2146,3.2246,3.225,3.2254,3.2311,3.232,3.2328,0,0,0,0,0,3.2189,3.2229,3.2213,3.2215,3.2221,3.2236,3.2237,3.2213,3.2187,3.2205,3.2193,3.2166,3.22,3.2177,3.218,3.2209,3.2244,3.2249,3.2253,3.2307,3.2318,3.2328,0,0,0,0,0,0,3.2247,3.2227,3.2208,3.2245,3.2243,3.2227,3.2249,3.2226,3.2231,3.2226,3.2196,3.2194,3.2226,3.222,3.2195,3.2254,3.2217,3.2223,3.2257,3.2267,3.2276,3.2277,3.2148,0,0,0,0,0,3.2264,3.2278,3.226,3.2294,3.2294,3.2272,3.2278,3.2259,3.2256,3.2255,3.2244,3.2242,3.2252,3.2259,3.2268,3.2309,3.2306,3.233,3.2339,3.2346,3.2351,3.2372,3.2383,3.2271,3.2271,3.2271,0,0,3.23,3.2291,3.2301,3.2306,3.2302,3.2317,3.2271,3.229,3.23,3.2257,3.2283,3.2275,3.227,3.2305,3.232,3.2301,3.2382,3.2352,3.2358,3.2359,3.2378,3.2389,3.2398,3.2274,3.2274,3.2273,0,0,3.2372,3.2367,3.2394,3.2391,3.2385,3.237,3.2377,3.2364,3.2357,3.2382,3.235,3.2362,3.2381,3.2378,3.238,3.245,3.2426,3.2454,3.2499,3.252,3.2529,3.2537,3.2561,3.2571,3.2459,3.2459,3.2459,0,3.2417,3.2438,3.2411,3.2431,3.2434,3.2395,3.2423,3.2421,3.2418,3.2421,3.24,3.2421,3.2416,3.2449,3.2466,3.2469,3.2475,3.2455,3.253,3.2537,3.2544,3.2567,3.2577,3.2463,3.2462,3.2462,3.2462,0,3.2494,3.2509,3.2532,3.253,3.2535,3.2559,3.2535,3.2544,3.2525,3.2512,3.2537,3.2529,3.2534,3.2541,3.2523,3.2572,3.256,3.2535,3.2498,3.2559,3.258,3.2589,3.2468,3.2466,3.2465,3.2465,0,0,3.2603,3.2585,3.2594,3.2592,3.2582,3.2593,3.2615,3.262,3.2628,3.2627,3.2645,3.2661,3.2637,3.2638,3.262,3.2638,3.2694,3.261,3.261,3.2626,3.2747,3.2766,3.2776,3.2677,3.2679,3.268,3.2747,0,3.2672,3.2707,3.2683,3.2723,3.2736,3.2699,3.2718,3.2714,3.2703,3.2712,3.2699,3.2711,3.2679,3.268,3.2696,3.2684,3.2718,3.2678,3.2693,3.2694,3.2695,3.2788,3.2808,3.2871,3.2755,3.2757,3.2758,0,3.2757,3.2759,3.28,3.2787,3.2792,3.2809,3.2811,3.2821,3.2816,3.2806,3.2807,3.2784,3.2804,3.2767,3.2795,3.2769,3.2773,3.2768,3.277,3.277,3.273,3.2791,3.2891,3.2901,3.2771,3.277,3.2769,0,3.2832,3.2846,3.2871,3.2871,3.2856,3.2869,3.2864,3.2857,3.2861,3.2863,3.2865,3.287,3.2873,3.2877,3.2855,3.283,3.2885,3.2847,3.2878,3.2879,3.2891,3.2891,3.2994,3.2895,3.2894,3.2894,3.2894,0,3.2911,3.2938,3.2905,3.2921,3.2949,3.2921,3.295,3.2941,3.2934,3.2948,3.2916,3.293,3.29,3.291,3.2894,3.2919,3.292,3.2913,3.2908,3.2916,3.2917,3.2918,3.2913,3.2897,3.2896,3.2896,3.2895,0,3.3,3.2979,3.3005,3.2988,3.2985,3.3007,3.2993,3.3007,3.2993,3.301,3.3013,3.2991,3.3001,3.298,3.2988,3.2976,3.3012,3.3,3.3014,3.301,3.3042,3.3039,3.315,3.3163,3.3055,3.3057,3.3057,0,3.3052,3.3071,3.3057,3.3063,3.3059,3.307,3.3074,3.3047,3.3053,3.3048,3.3062,3.307,3.3075,3.3093,3.3079,3.3084,3.3072,3.3111,3.3073,3.308,3.3073,3.3072,3.3073,3.3119,3.312,3.3121,3.3122,0,3.3147,3.3135,3.3141,3.3144,3.315,3.3151,3.315,3.3157,3.3128,3.3136,3.3146,3.315,3.3157,3.3165,3.3167,3.3162,3.3137,3.3134,3.3141,3.3149,3.3156,3.3152,3.3034,3.3131,3.313,3.313,3.3129,3.3129,3.3218,3.3233,3.3225,3.3233,3.3229,3.3229,3.3241,3.3228,3.3236,3.3239,3.3223,3.3237,3.323,3.3231,3.3228,3.3238,3.3221,3.3232,3.3234,3.3238,3.3243,3.3154,3.3238,3.3238,3.3238,3.3238,3.3237,0,3.3311,3.3303,3.3311,3.331,3.3316,3.3292,3.3289,3.3296,3.3308,3.3304,3.3309,3.3321,3.3328,3.3314,3.3319,3.333,3.3319,3.3332,3.3331,3.333,3.3258,3.3251,3.3341,3.3341,3.3341,3.3341,3.3341,3.3341,3.3359,3.3383,3.3371,3.3392,3.3385,3.3397,3.3398,3.3397,3.3393,3.3407,3.3413,3.3403,3.3395,3.3399,3.3405,3.3401,3.3404,3.3421,3.3413,3.3346,3.3336,3.3326,3.3319,3.3422,3.3423,3.3485,3.3485,3.3486]}]]